Dutzow, MO

2:23 PM CST on January 23, 2017 (GMT -0600)
Washington

Weather History for KFYG - May, 2014

Change the Weather History Date:

Friday, May 9, 2014

  Actual Average (KSUS) Record (KSUS)
Temperature  
Mean Temperature 66 °F -  
Max Temperature 77 °F 73 °F 90 °F (2003)
Min Temperature 55 °F 51 °F 46 °F (1997)
Cooling Degree Days 1    
Growing Degree Days 16 (Base 50)    
Moisture  
Dew Point 61 °F    
Average Humidity 79    
Maximum Humidity 100    
Minimum Humidity 50    
Precipitation  
Precipitation 0.00 in - - ()
Sea Level Pressure  
Sea Level Pressure 29.83 in    
Wind  
Wind Speed 7 mph (WSW)    
Max Wind Speed 13 mph    
Max Gust Speed 20 mph    
Visibility 10 miles    
Events      
Averages and records for this station are not official NWS values.
T = Trace of Precipitation, MM = Missing Value Source: NWS Daily Summary

Daily Weather History Graph

Daily Weather History Graph

Search for Another Location

Airport or City:

Trip Planner

Search our weather history database for the weather conditions in past years. The results will help you decide how hot, cold, wet, or windy it might be!

Date:

Astronomy

May. 09, 2014 Rise Set
Actual Time 5:57 AM CDT 8:03 PM CDT
Civil Twilight 5:28 AM CDT 8:32 PM CDT
Nautical Twilight 4:52 AM CDT 9:08 PM CDT
Astronomical Twilight 4:13 AM CDT 9:47 PM CDT
Moon 3:04 PM CDT (5/9) 2:56 AM CDT (5/9)
Length of Visible Light 15h 04m
Length of Day
14h 05m
Waxing Gibbous, 74% of the Moon is Illuminated
May 9
Waxing Gibbous
May 14
Full
May 21
Last Quarter
May 28
New
Jun 5
First Quarter

Hourly Weather History & Observations

Time (CDT) Temp. Dew Point Humidity Pressure Visibility Wind Dir Wind Speed Gust Speed Precip Events Conditions
12:15 AM 66.2 °F 66.2 °F 100% 29.81 in 10.0 mi SSE 10.4 mph - N/A   Clear
12:35 AM 66.2 °F 66.2 °F 100% 29.81 in 10.0 mi SSE 12.7 mph - N/A   Clear
12:55 AM 66.2 °F 66.2 °F 100% 29.81 in 10.0 mi SSE 11.5 mph - N/A   Mostly Cloudy
1:15 AM 66.2 °F 66.2 °F 100% 29.81 in 10.0 mi SSE 9.2 mph - N/A   Overcast
1:35 AM 66.2 °F 66.2 °F 100% 29.80 in 10.0 mi SE 5.8 mph - N/A   Overcast
2:35 AM 66.2 °F 66.2 °F 100% 29.77 in 10.0 mi SSE 5.8 mph - N/A   Overcast
3:15 AM 66.2 °F 66.2 °F 100% 29.78 in 10.0 mi South 5.8 mph - N/A   Overcast
3:35 AM 66.2 °F 66.2 °F 100% 29.78 in 10.0 mi SSW 3.5 mph - N/A   Overcast
3:55 AM 66.2 °F 66.2 °F 100% 29.78 in 10.0 mi South 4.6 mph - N/A   Mostly Cloudy
4:15 AM 68.0 °F 66.2 °F 94% 29.78 in 10.0 mi WSW 3.5 mph - N/A   Overcast
4:35 AM 66.2 °F 66.2 °F 100% 29.78 in 10.0 mi WSW 3.5 mph - N/A   Overcast
4:55 AM 66.2 °F 66.2 °F 100% 29.78 in 10.0 mi SSW 5.8 mph - N/A   Overcast
5:15 AM 66.2 °F 66.2 °F 100% 29.78 in 10.0 mi SSW 5.8 mph - N/A   Overcast
5:35 AM 66.2 °F 66.2 °F 100% 29.79 in 10.0 mi SW 4.6 mph - N/A   Overcast
5:55 AM 66.2 °F 64.4 °F 94% 29.79 in 10.0 mi SSE 3.5 mph - N/A   Overcast
6:15 AM 64.4 °F 64.4 °F 100% 29.77 in 10.0 mi SE 6.9 mph - N/A   Overcast
6:35 AM 64.4 °F 64.4 °F 100% 29.78 in 10.0 mi SSE 8.1 mph - N/A   Scattered Clouds
6:55 AM 64.4 °F 64.4 °F 100% 29.79 in 10.0 mi Calm Calm - N/A   Clear
7:15 AM 64.4 °F 62.6 °F 94% 29.82 in 10.0 mi West 3.5 mph - N/A   Clear
7:35 AM 64.4 °F 62.6 °F 94% 29.84 in 10.0 mi West 4.6 mph - N/A   Clear
7:55 AM 64.4 °F 60.8 °F 88% 29.85 in 10.0 mi West 3.5 mph - N/A   Clear
8:15 AM 66.2 °F 62.6 °F 88% 29.86 in 10.0 mi West 4.6 mph - N/A   Clear
8:35 AM 66.2 °F 62.6 °F 88% 29.87 in 10.0 mi West 9.2 mph - N/A   Clear
8:55 AM 66.2 °F 60.8 °F 83% 29.86 in 10.0 mi West 8.1 mph 18.4 mph N/A   Clear
9:15 AM 68.0 °F 62.6 °F 83% 29.85 in 10.0 mi West 6.9 mph 16.1 mph N/A   Clear
9:35 AM 68.0 °F 60.8 °F 78% 29.85 in 10.0 mi West 4.6 mph - N/A   Clear
9:55 AM 68.0 °F 60.8 °F 78% 29.85 in 10.0 mi West 6.9 mph - N/A   Partly Cloudy
10:15 AM 69.8 °F 60.8 °F 73% 29.84 in 10.0 mi WSW 6.9 mph - N/A   Clear
10:35 AM 69.8 °F 60.8 °F 73% 29.84 in 10.0 mi West 4.6 mph - N/A   Partly Cloudy
11:15 AM 71.6 °F 59.0 °F 64% 29.84 in 10.0 mi WSW 6.9 mph - N/A   Partly Cloudy
11:35 AM 71.6 °F 60.8 °F 69% 29.86 in 10.0 mi WSW 10.4 mph - N/A   Partly Cloudy
12:15 PM 71.6 °F 60.8 °F 69% 29.86 in 10.0 mi WSW 5.8 mph - N/A   Scattered Clouds
12:35 PM 71.6 °F 60.8 °F 69% 29.85 in 10.0 mi West 4.6 mph - N/A   Partly Cloudy
12:55 PM 71.6 °F 62.6 °F 73% 29.85 in 10.0 mi SW 8.1 mph - N/A   Clear
1:15 PM 73.4 °F 59.0 °F 61% 29.83 in 10.0 mi WSW 6.9 mph - N/A   Clear
1:35 PM 73.4 °F 59.0 °F 61% 29.82 in 10.0 mi WSW 8.1 mph - N/A   Clear
1:55 PM 75.2 °F 59.0 °F 57% 29.82 in 10.0 mi SW 12.7 mph - N/A   Partly Cloudy
2:15 PM 75.2 °F 57.2 °F 53% 29.82 in 10.0 mi West 5.8 mph 18.4 mph N/A   Scattered Clouds
2:35 PM 75.2 °F 57.2 °F 53% 29.82 in 10.0 mi West 5.8 mph 16.1 mph N/A   Scattered Clouds
2:55 PM 75.2 °F 59.0 °F 57% 29.81 in 10.0 mi WNW 8.1 mph - N/A   Scattered Clouds
3:35 PM 77.0 °F 59.0 °F 54% 29.81 in 10.0 mi West 8.1 mph - N/A   Clear
3:55 PM 75.2 °F 57.2 °F 53% 29.80 in 10.0 mi WNW 11.5 mph 19.6 mph N/A   Clear
4:15 PM 75.2 °F 57.2 °F 53% 29.80 in 10.0 mi WNW 10.4 mph - N/A   Partly Cloudy
4:35 PM 75.2 °F 59.0 °F 57% 29.80 in 10.0 mi NW 11.5 mph 17.3 mph N/A   Partly Cloudy
4:55 PM 75.2 °F 57.2 °F 53% 29.80 in 10.0 mi WNW 9.2 mph 16.1 mph N/A   Partly Cloudy
5:15 PM 75.2 °F 59.0 °F 57% 29.81 in 10.0 mi WNW 10.4 mph - N/A   Partly Cloudy
5:35 PM 75.2 °F 57.2 °F 53% 29.81 in 10.0 mi WNW 8.1 mph - N/A   Clear
5:55 PM 75.2 °F 59.0 °F 57% 29.82 in 10.0 mi NW 11.5 mph - N/A   Clear
6:15 PM 75.2 °F 57.2 °F 53% 29.82 in 10.0 mi NW 10.4 mph - N/A   Clear
7:15 PM 73.4 °F 55.4 °F 53% 29.82 in 8.0 mi NW 5.8 mph - N/A   Clear
7:55 PM 71.6 °F 51.8 °F 50% 29.82 in 3.0 mi North 3.5 mph - N/A   Haze
8:15 PM 71.6 °F 53.6 °F 53% 29.83 in 10.0 mi North 3.5 mph - N/A   Clear
8:35 PM 68.0 °F 51.8 °F 56% 29.84 in 10.0 mi Calm Calm - N/A   Clear
8:55 PM 66.2 °F 57.2 °F 73% 29.85 in 10.0 mi Calm Calm - N/A   Clear
9:15 PM 62.6 °F 55.4 °F 77% 29.86 in 10.0 mi Calm Calm - N/A   Clear
9:35 PM 62.6 °F 57.2 °F 82% 29.87 in 10.0 mi Calm Calm - N/A   Clear
9:55 PM 60.8 °F 55.4 °F 82% 29.87 in 10.0 mi Calm Calm - N/A   Clear
10:15 PM 59.0 °F 57.2 °F 94% 29.88 in 10.0 mi Calm Calm - N/A   Clear
10:35 PM 59.0 °F 57.2 °F 94% 29.89 in 10.0 mi Calm Calm - N/A   Clear
10:55 PM 57.2 °F 57.2 °F 100% 29.89 in 10.0 mi Calm Calm - N/A   Clear
11:15 PM 57.2 °F 57.2 °F 100% 29.90 in 10.0 mi Calm Calm - N/A   Clear
11:35 PM 55.4 °F 55.4 °F 100% 29.89 in 10.0 mi Calm Calm - N/A   Clear
11:55 PM 57.2 °F 57.2 °F 100% 29.90 in 10.0 mi Calm Calm - N/A   Clear